カタログに戻る

ATLAS 5 CENTAUR DEB

運用中HEO
NORAD 44106·DEBRIS·🇺🇸 United States

打ち上げ Sep 17, 2014 から Cape Canaveral Space Force Station

Loading…

次のパス (今後24時間)

TLE

最新Source: Space-Track

元期: Sep 9, 2026, 08:05 UTC

1 44106U 14055CB  26252.33718625 -.00000104  00000-0  00000-0 0  9998
2 44106  20.2390 135.0133 4783821 179.8356 180.3994  1.84989577 51302

AllMySatでATLAS 5 CENTAUR DEBをリアルタイム追跡

Download on the App Store